• In Netherlands
  • List of Countries
  • For 7 days
  • Water Temperature
  • Satellite Maps
  • Weather Map
  • Weather Widgets
  • user-avatar
    Login

    Hourly Weather Stepanakert

    Today, 20 February, Monday

    Time Temperature Precipitation Wind Pressure Humidity
    00:00 -3°C° 0 mm 1 mps 699 mmHg 75%
    01:00 -3°C° 0 mm 1 mps 699 mmHg 75%
    02:00 -3°C° 0 mm 1 mps 699 mmHg 75%
    03:00 -5°C° 0 mm 2 mps 698 mmHg 77%
    04:00 -5°C° 0 mm 2 mps 698 mmHg 77%
    05:00 -5°C° 0 mm 2 mps 698 mmHg 77%
    06:00 -5°C° 0 mm 2 mps 698 mmHg 76%
    07:00 -1°C° 0 mm 1 mps 698 mmHg 78%
    08:00 +1°C° 0 mm 1 mps 699 mmHg 79%
    09:00 +3°C° 0 mm 1 mps 699 mmHg 80%
    10:00 +4°C° 0 mm 1 mps 699 mmHg 78%
    11:00 +5°C° 0 mm 1 mps 698 mmHg 75%
    12:00 +6°C° 0 mm 1 mps 698 mmHg 73%
    13:00 +6°C° 0 mm 1 mps 697 mmHg 73%
    14:00 +7°C° 0 mm 1 mps 697 mmHg 73%
    15:00 +7°C° 0 mm 1 mps 696 mmHg 74%
    16:00 +4°C° 0 mm 1 mps 696 mmHg 78%
    17:00 +2°C° 0 mm 1 mps 695 mmHg 83%
    18:00 -1°C° 0 mm 0 mps 694 mmHg 87%
    19:00 0°C° 0 mm 1 mps 694 mmHg 86%
    20:00 0°C° 0 mm 1 mps 694 mmHg 85%
    21:00 0°C° 0 mm 1 mps 694 mmHg 84%
    22:00 -1°C° 0 mm 1 mps 694 mmHg 83%
    23:00 -1°C° 0 mm 1 mps 694 mmHg 82%

    Tomorrow, 21 February, Tuesday

    Time Temperature Precipitation Wind Pressure Humidity
    00:00 -1°C° 0 mm 1 mps 694 mmHg 82%
    01:00 -1°C° 0 mm 1 mps 693 mmHg 81%
    02:00 -1°C° 0 mm 1 mps 693 mmHg 80%
    03:00 -1°C° 0 mm 1 mps 693 mmHg 79%
    04:00 -1°C° 0 mm 1 mps 693 mmHg 78%
    05:00 -1°C° 0 mm 1 mps 692 mmHg 78%
    06:00 -3°C° 0 mm 2 mps 692 mmHg 77%
    07:00 +1°C° 0 mm 1 mps 692 mmHg 74%
    08:00 +3°C° 0 mm 1 mps 693 mmHg 71%
    09:00 +4°C° 0 mm 1 mps 693 mmHg 69%
    10:00 +6°C° 0 mm 1 mps 693 mmHg 67%
    11:00 +7°C° 0 mm 1 mps 692 mmHg 65%
    12:00 +8°C° 0 mm 1 mps 692 mmHg 63%
    13:00 +8°C° 0 mm 1 mps 692 mmHg 65%
    14:00 +8°C° 0 mm 1 mps 691 mmHg 68%
    15:00 +8°C° 0 mm 1 mps 691 mmHg 70%
    16:00 +6°C° 0 mm 1 mps 690 mmHg 75%
    17:00 +4°C° 0 mm 1 mps 690 mmHg 80%
    18:00 +1°C° 0 mm 1 mps 690 mmHg 86%
    19:00 +1°C° 0 mm 1 mps 690 mmHg 84%
    20:00 -1°C° 0 mm 2 mps 690 mmHg 82%
    21:00 -1°C° 0 mm 2 mps 690 mmHg 81%
    22:00 -1°C° 0 mm 2 mps 690 mmHg 79%
    23:00 -1°C° 0 mm 2 mps 690 mmHg 77%

    Day after tomorrow, 22 February, Wednesday

    Time Temperature Precipitation Wind Pressure Humidity
    00:00 -1°C° 0 mm 2 mps 690 mmHg 75%
    01:00 -1°C° 0 mm 2 mps 690 mmHg 73%
    02:00 -2°C° 0 mm 3 mps 690 mmHg 71%
    03:00 -2°C° 0 mm 3 mps 690 mmHg 70%
    04:00 -2°C° 0 mm 3 mps 690 mmHg 69%
    05:00 -2°C° 0 mm 3 mps 690 mmHg 68%
    06:00 -2°C° 0 mm 3 mps 690 mmHg 68%
    07:00 +1°C° 0 mm 2 mps 690 mmHg 65%
    08:00 +3°C° 0 mm 2 mps 691 mmHg 62%
    09:00 +4°C° 0 mm 2 mps 691 mmHg 60%
    10:00 +6°C° 0 mm 2 mps 691 mmHg 56%
    11:00 +7°C° 0 mm 2 mps 691 mmHg 52%
    12:00 +8°C° 0 mm 2 mps 691 mmHg 48%
    13:00 +8°C° 0 mm 2 mps 691 mmHg 50%
    14:00 +8°C° 0 mm 2 mps 691 mmHg 51%
    15:00 +8°C° 0 mm 2 mps 691 mmHg 53%
    16:00 +6°C° 0 mm 2 mps 690 mmHg 60%
    17:00 +4°C° 0 mm 2 mps 690 mmHg 67%
    18:00 +3°C° 0 mm 1 mps 690 mmHg 74%
    19:00 +3°C° 0 mm 1 mps 690 mmHg 74%
    20:00 +1°C° 0 mm 2 mps 691 mmHg 73%
    21:00 +1°C° 0 mm 2 mps 691 mmHg 73%
    22:00 +1°C° 0 mm 2 mps 691 mmHg 72%
    23:00 +1°C° 0 mm 2 mps 691 mmHg 71%

    23 February, Thursday

    Time Temperature Precipitation Wind Pressure Humidity
    00:00 +1°C° 0 mm 2 mps 691 mmHg 70%
    01:00 +1°C° 0 mm 2 mps 690 mmHg 70%
    02:00 +1°C° 0 mm 2 mps 690 mmHg 70%
    03:00 +1°C° 0 mm 2 mps 690 mmHg 70%
    04:00 +1°C° 0 mm 2 mps 690 mmHg 70%
    05:00 +1°C° 0 mm 2 mps 691 mmHg 70%
    06:00 +1°C° 0 mm 2 mps 691 mmHg 70%
    07:00 +2°C° 0 mm 2 mps 692 mmHg 67%
    08:00 +4°C° 0 mm 2 mps 692 mmHg 63%
    09:00 +5°C° 0 mm 2 mps 693 mmHg 60%
    10:00 +6°C° 0 mm 2 mps 693 mmHg 56%
    11:00 +7°C° 0 mm 2 mps 694 mmHg 52%
    12:00 +9°C° 0 mm 2 mps 694 mmHg 48%
    13:00 +9°C° 0 mm 2 mps 694 mmHg 48%
    14:00 +9°C° 0 mm 2 mps 694 mmHg 49%
    15:00 +9°C° 0 mm 2 mps 694 mmHg 50%
    16:00 +7°C° 0 mm 2 mps 694 mmHg 58%
    17:00 +6°C° 0 mm 1 mps 694 mmHg 66%
    18:00 +4°C° 0 mm 1 mps 694 mmHg 74%
    19:00 +4°C° 0 mm 1 mps 694 mmHg 74%
    20:00 +3°C° 0 mm 1 mps 694 mmHg 74%
    21:00 +3°C° 0 mm 1 mps 695 mmHg 74%
    22:00 +2°C° 0 mm 2 mps 695 mmHg 72%
    23:00 +2°C° 0 mm 2 mps 695 mmHg 70%

    24 February, Friday

    Time Temperature Precipitation Wind Pressure Humidity
    00:00 +1°C° 0 mm 2 mps 695 mmHg 68%
    01:00 +1°C° 0 mm 2 mps 695 mmHg 67%
    02:00 +1°C° 0 mm 2 mps 694 mmHg 67%
    03:00 +1°C° 0 mm 2 mps 694 mmHg 66%
    04:00 +1°C° 0 mm 2 mps 694 mmHg 66%
    05:00 +1°C° 0 mm 2 mps 695 mmHg 65%
    06:00 +1°C° 0 mm 2 mps 695 mmHg 65%
    07:00 +3°C° 0 mm 2 mps 695 mmHg 61%
    08:00 +5°C° 0 mm 2 mps 696 mmHg 58%
    09:00 +7°C° 0 mm 2 mps 696 mmHg 54%
    10:00 +8°C° 0 mm 2 mps 696 mmHg 51%
    11:00 +11°C° 0 mm 1 mps 696 mmHg 47%
    12:00 +12°C° 0 mm 1 mps 696 mmHg 44%
    13:00 +12°C° 0 mm 2 mps 696 mmHg 46%
    14:00 +12°C° 0 mm 2 mps 696 mmHg 47%
    15:00 +12°C° 0 mm 2 mps 696 mmHg 49%
    16:00 +10°C° 0 mm 1 mps 696 mmHg 57%
    17:00 +8°C° 0 mm 1 mps 695 mmHg 65%
    18:00 +5°C° 0 mm 1 mps 695 mmHg 73%
    19:00 +5°C° 0 mm 1 mps 696 mmHg 73%
    20:00 +5°C° 0 mm 1 mps 696 mmHg 72%
    21:00 +5°C° 0 mm 1 mps 696 mmHg 72%
    22:00 +5°C° 0 mm 1 mps 696 mmHg 71%
    23:00 +4°C° 0 mm 1 mps 696 mmHg 71%

    25 February, Saturday

    Time Temperature Precipitation Wind Pressure Humidity
    00:00 +3°C° 0 mm 2 mps 696 mmHg 70%
    01:00 +3°C° 0 mm 2 mps 696 mmHg 69%
    02:00 +3°C° 0 mm 2 mps 695 mmHg 68%
    03:00 +3°C° 0 mm 2 mps 695 mmHg 67%
    04:00 +3°C° 0 mm 2 mps 695 mmHg 67%
    05:00 +3°C° 0 mm 2 mps 695 mmHg 66%
    06:00 +2°C° 0 mm 2 mps 695 mmHg 66%
    07:00 +4°C° 0 mm 2 mps 695 mmHg 61%
    08:00 +7°C° 0 mm 1 mps 695 mmHg 56%
    09:00 +9°C° 0 mm 1 mps 695 mmHg 51%
    10:00 +11°C° 0 mm 1 mps 695 mmHg 48%
    11:00 +12°C° 0 mm 1 mps 694 mmHg 45%
    12:00 +13°C° 0 mm 1 mps 694 mmHg 43%
    13:00 +14°C° 0 mm 1 mps 694 mmHg 44%
    14:00 +14°C° 0 mm 2 mps 693 mmHg 45%
    15:00 +14°C° 0 mm 2 mps 692 mmHg 46%
    16:00 +12°C° 0 mm 2 mps 692 mmHg 53%
    17:00 +9°C° 0 mm 1 mps 692 mmHg 60%
    18:00 +7°C° 0 mm 1 mps 691 mmHg 67%
    19:00 +6°C° 0 mm 2 mps 691 mmHg 66%
    20:00 +5°C° 0 mm 2 mps 691 mmHg 65%
    21:00 +5°C° 0 mm 2 mps 691 mmHg 64%
    22:00 +4°C° 0 mm 3 mps 691 mmHg 63%
    23:00 +4°C° 0 mm 3 mps 690 mmHg 63%
    Show more